STARLINK-36308, 68543

Orbit data source: Space-Track

STARLINK-36308, 68543 is a payload satellite owned by SpaceX/Seattle (US) in LEO that was launched on Thu, 02 Apr 2026 UTC via an FALCON 9 launch vehicle from the Air Force Eastern Test Range (AFETR). Payload-class satellites include a variety of spacecraft equipped with specific instruments for various scientific and technological missions. These include communications satellites like Starlink; space stations such as the ISS; scientific satellites like the Hubble; Earth observation satellites from companies like Planet Labs, Umbra, and HawkEye 360; GPS; miniature CubeSats for education and research; and military/defense satellites.

Loading next visibility...
Identifier
68543, 2026-070B
Orbit
LEO
Country
Flag of USUS
Related business
Manufacturer
SpaceX/Seattle
Mission
Operational Commercial Communications
Bus & Motor
STARLINK V2MO, Unknown motor
Mass
575 kg wet, ~530 kg dry
Launch date (UTC)
2026-04-02 (5 months ago)
Launch vehicle
FALCON 9
Launch site
Air Force Eastern Test Range (AFETR)
Object type
Payload
Rocket body
Debris
Shape & HBR
Box + 1 Pan, 17.7 m
Radar Cross Section
41.120 m², Large (>1 m²)

Expand to show TLE details & history
Last TLE update: 6 hours ago

TLE from 6 hours ago
0 STARLINK-36308
1 68543U 26070B   26247.15044103  .00012845  00000-0  39064-3 0  9995
2 68543  53.1581 250.4096 0001255  80.0166 280.0978 15.34399997 23920
Epoch: 2026-09-04T03:36Z
TLE epoch observation values (Epoch: 2026-09-04T03:36:38.104Z)
Latitude
-0.00006°
Longitude
-147.02761°
Altitude
463.454 km
Speed
7.636 km/s
True Right ascension
16h 41m 38s
True Declination
0° 00' 00"
Sunlit
Object was in daylight at epoch
Visualization orbit readout
Latitude
Unknown
Longitude
Unknown
Altitude
Unknown
Speed
Unknown
Apparent Right ascension
Unknown
Apparent Declination
Unknown
Sunlit
N/A
Visualization observer readout
Local Sidereal Time
01:36:15
Azimuth
Unknown
Elevation
Unknown
Doppler factor
Unknown
Orbital elements
Apogee altitude
463.819 km
Perigee altitude
462.102 km
Semi-major axis
6,841.097 km
Eccentricity
0.00013
Inclination
53.1581°
RAAN
250.4096°
Arg. of periapsis
80.0166°
True anomaly
280.08364°
Mean anomaly
280.0978°
Eccentric anomaly
280.09072°
Mean motion
3.83579 °/min
Orbital period
93.85 mins
BSTAR
0.00039064
Loading maneuver chart data...
Computing Atmospheric mass density...
Loading historical data...
Loading historical data...
Loading historical data...
Loading historical data...
Loading historical data...
Loading historical data...
Loading historical data...

Documentation

Showing up to 5 results
|